Waarnemingen

Advertentie
Mijn weer
Norrkoping, Zweden (2574): temperatuur & dauwpunt: 14.11.2017 01:00:00 - 20.11.2017 01:00:00 (CET)Norrkoping, Zweden (2574): windsnelheid & windstoten: 14.11.2017 01:00:00 - 20.11.2017 01:00:00 (CET)Norrkoping, Zweden (2574): windrichting: 14.11.2017 01:00:00 - 20.11.2017 01:00:00 (CET)Norrkoping, Zweden (2574): luchtdruk: 14.11.2017 01:00:00 - 20.11.2017 01:00:00 (CET)Norrkoping, Zweden (2574): zicht: 14.11.2017 01:00:00 - 20.11.2017 01:00:00 (CET)Norrkoping, Zweden (2574): neerslag: 14.11.2017 01:00:00 - 20.11.2017 01:00:00 (CET)
Datum & Tijd tt [°C] td [°C] ff [km/u] ff [kn] fx [km/u] fx [kn] dd ppp [hPa] vv [km] rr [mm]
20.11.2017 01:00:00 - - - - - - - - - -
20.11.2017 00:00:00 -1,6 -4,1 12 7 24 13 WNW 1004,4 50 0,0
19.11.2017 23:00:00 -1,5 -4,5 13 7 22 12 WNW 1004,3 50 0,0
19.11.2017 22:00:00 -1,3 -4,3 9 5 19 10 WNW 1004,1 50 0,0
19.11.2017 21:00:00 -1,5 -4,5 6 4 19 11 NW 1003,9 50 0,0
19.11.2017 20:00:00 -1,6 -4,6 8 4 18 10 NNW 1003,3 50 0,0
19.11.2017 19:00:00 -1,9 -4,7 9 5 26 14 NNW 1002,8 50 0,0
19.11.2017 18:00:00 -2,1 -4,9 11 6 30 16 NNW 1002,5 50 0,0
19.11.2017 17:00:00 -1,8 -4,0 10 6 24 13 N 1002,0 25 0,0
19.11.2017 16:00:00 -0,9 -2,5 8 4 25 13 N 1001,4 6 0,0
19.11.2017 15:00:00 -0,2 -2,3 14 8 26 14 N 1000,6 14 0,0
19.11.2017 14:00:00 0,3 -2,1 14 7 35 19 NNO 999,5 50 0,0
19.11.2017 13:00:00 0,6 -1,5 16 9 36 20 NNO 998,8 50 0,0
19.11.2017 12:00:00 0,9 -0,9 20 11 36 19 NNO 998,0 50 0,0
19.11.2017 11:00:00 0,9 -0,4 16 9 36 19 NNO 997,4 50 0,0
19.11.2017 10:00:00 1,3 0,4 12 6 28 15 NO 996,4 50 0,1
19.11.2017 09:00:00 1,1 0,4 12 6 28 15 NNO 995,6 8 0,6
19.11.2017 08:00:00 0,8 0,5 12 6 27 15 NO 994,9 6 0,4
19.11.2017 07:00:00 1,4 1,3 8 4 19 10 NO 994,1 6 0,8
19.11.2017 06:00:00 0,6 0,5 6 3 17 9 ONO 993,7 6 0,2
19.11.2017 05:00:00 0,6 0,3 8 4 16 9 ONO 993,5 9 0,0
19.11.2017 04:00:00 0,5 0,2 5 3 11 6 O 993,2 4,3 0,6
19.11.2017 03:00:00 0,3 0,0 3 1 14 7 O 993,3 4,1 0,1
19.11.2017 02:00:00 0,1 -0,3 5 3 11 6 O 993,5 9 0,1
19.11.2017 01:00:00 -0,1 -0,5 5 3 8 4 O 993,7 37 0,0
19.11.2017 00:00:00 -0,5 -0,9 3 2 6 3 OZO 994,0 32 0,0
18.11.2017 23:00:00 -0,5 -1,1 3 2 7 4 ZO 994,2 27 0,0
18.11.2017 22:00:00 0,9 0,0 5 3 11 6 ZZO 994,4 49 0,0
18.11.2017 21:00:00 1,4 0,4 5 3 11 6 ZZW 994,4 47 0,0
18.11.2017 20:00:00 2,5 1,0 6 3 14 7 ZZW 994,5 50 0,0
18.11.2017 19:00:00 2,5 1,2 5 3 14 8 ZW 994,7 50 0,0
18.11.2017 18:00:00 2,1 1,1 6 4 15 8 ZZW 994,8 50 0,0
18.11.2017 17:00:00 2,8 1,3 8 4 16 9 WZW 994,8 49 0,0
18.11.2017 16:00:00 3,5 1,4 9 5 18 10 ZW 995,3 50 0,0
18.11.2017 15:00:00 4,7 2,2 9 5 19 11 ZW 995,4 50 0,0
18.11.2017 14:00:00 5,0 2,4 11 6 27 15 WZW 995,7 50 0,0
18.11.2017 13:00:00 5,3 2,5 14 8 28 15 WZW 996,0 50 0,0
18.11.2017 12:00:00 5,3 2,5 14 8 29 16 WZW 996,4 50 0,0
18.11.2017 11:00:00 5,5 3,8 13 7 28 15 ZW 996,8 50 0,3
18.11.2017 10:00:00 5,2 3,7 10 5 30 16 ZZW 996,8 18 0,3
18.11.2017 09:00:00 5,5 2,8 14 7 27 14 ZZW 997,5 50 0,0
18.11.2017 08:00:00 5,1 3,6 9 5 34 18 ZZW 998,2 12 0,3
18.11.2017 07:00:00 5,3 2,8 16 8 35 19 ZZW 998,9 34 0,0
18.11.2017 06:00:00 5,4 2,9 14 8 36 19 ZZW 999,8 38 0,0
18.11.2017 05:00:00 5,5 3,3 16 9 29 16 ZZW 1000,7 33 0,1
18.11.2017 04:00:00 4,9 3,4 16 8 30 16 ZW 1002,0 50 0,1
18.11.2017 03:00:00 5,4 4,0 12 7 27 15 ZW 1003,3 17 0,6
18.11.2017 02:00:00 5,4 3,9 13 7 31 17 ZW 1004,1 11 0,1
18.11.2017 01:00:00 5,9 3,1 18 10 35 19 ZW 1004,6 13 0,0
18.11.2017 00:00:00 6,0 2,5 17 9 29 15 ZW 1005,4 29 0,0
17.11.2017 23:00:00 6,1 2,6 16 9 40 22 ZW 1006,2 33 0,0
17.11.2017 22:00:00 6,2 2,5 17 9 38 20 ZW 1006,8 28 0,0
17.11.2017 21:00:00 6,4 2,5 20 11 44 24 WZW 1007,3 25 0,0
17.11.2017 20:00:00 6,7 2,6 20 11 45 24 WZW 1007,7 21 0,0
17.11.2017 19:00:00 7,2 2,7 26 14 44 24 WZW 1008,1 23 0,0
17.11.2017 18:00:00 6,9 2,6 24 13 49 27 WZW 1008,7 21 0,0
17.11.2017 17:00:00 7,1 2,4 23 12 47 26 WZW 1008,8 21 0,0
17.11.2017 16:00:00 7,1 2,2 25 13 48 26 WZW 1009,3 19 0,0
17.11.2017 15:00:00 7,0 2,1 21 11 45 24 WZW 1009,2 21 0,0
17.11.2017 14:00:00 7,4 1,5 20 11 37 20 WZW 1009,7 29 0,0
17.11.2017 13:00:00 6,9 1,2 22 12 53 28 WZW 1010,1 30 0,0
17.11.2017 12:00:00 6,4 1,3 23 12 40 21 WZW 1010,3 35 0,0
17.11.2017 11:00:00 5,9 1,2 18 10 35 19 WZW 1010,6 38 0,0
17.11.2017 10:00:00 5,1 1,2 14 8 36 19 WZW 1010,7 25 0,0
17.11.2017 09:00:00 4,4 0,9 15 8 29 16 WZW 1009,9 30 0,0
17.11.2017 08:00:00 3,6 0,8 11 6 30 16 ZW 1009,3 27 0,0
17.11.2017 07:00:00 3,9 1,1 15 8 31 17 WZW 1008,7 30 0,0
17.11.2017 06:00:00 3,9 1,6 15 8 29 16 WZW 1008,1 26 0,0
17.11.2017 05:00:00 4,2 1,9 16 9 31 17 WZW 1007,7 27 0,0
17.11.2017 04:00:00 4,6 2,1 19 10 41 22 WZW 1007,2 40 0,0
17.11.2017 03:00:00 5,3 2,6 17 9 38 21 WZW 1007,1 50 0,0
17.11.2017 02:00:00 6,5 3,8 22 12 41 22 WZW 1006,8 50 0,0
17.11.2017 01:00:00 7,0 5,5 15 8 45 24 ZW 1006,5 50 0,3
17.11.2017 00:00:00 6,6 5,5 16 9 29 16 Z 1006,4 40 0,0
16.11.2017 23:00:00 6,0 5,1 15 8 36 19 Z 1007,4 19 0,4
16.11.2017 22:00:00 5,3 4,4 15 8 25 14 Z 1009,0 21 0,2
16.11.2017 21:00:00 4,6 3,9 12 7 23 13 Z 1010,3 11 0,7
16.11.2017 20:00:00 4,0 2,8 10 6 24 13 Z 1011,5 30 0,0
16.11.2017 19:00:00 3,3 2,0 11 6 27 15 Z 1012,7 34 0,0
16.11.2017 18:00:00 2,7 1,7 11 6 23 12 Z 1014,3 30 0,0
16.11.2017 17:00:00 2,3 1,3 7 4 21 12 Z 1015,6 27 0,0
16.11.2017 16:00:00 2,4 1,2 10 6 22 12 ZZW 1016,8 27 0,0
16.11.2017 15:00:00 3,4 1,4 3 2 10 5 ZW 1017,6 24 0,0
16.11.2017 14:00:00 4,8 2,2 3 2 13 7 W 1018,3 22 0,0
16.11.2017 13:00:00 4,7 2,1 8 4 16 9 ZW 1018,6 27 0,0
16.11.2017 12:00:00 4,5 1,9 8 4 15 8 ZW 1019,1 26 0,0
16.11.2017 11:00:00 3,4 1,3 6 3 14 7 ZW 1019,8 21 0,0
16.11.2017 10:00:00 1,6 0,6 8 4 16 9 ZW 1019,6 19 0,0
16.11.2017 09:00:00 0,6 0,2 8 4 13 7 ZW 1020,2 16 0,0
16.11.2017 08:00:00 -0,6 -0,9 7 4 10 6 ZW 1020,3 12 0,0
16.11.2017 07:00:00 -0,4 -0,8 5 3 13 7 WZW 1019,9 10 0,0
16.11.2017 06:00:00 0,3 -0,1 8 5 17 9 ZW 1019,9 17 0,0
16.11.2017 05:00:00 0,0 -0,4 8 4 15 8 ZW 1019,9 15 0,0
16.11.2017 04:00:00 0,6 0,0 8 5 13 7 ZW 1019,8 21 0,0
16.11.2017 03:00:00 0,9 -0,1 6 4 11 6 ZW 1019,7 25 0,0
16.11.2017 02:00:00 1,0 0,0 6 3 13 7 WZW 1019,4 33 0,0
16.11.2017 01:00:00 1,3 0,1 6 4 14 7 ZW 1019,2 36 0,0
16.11.2017 00:00:00 1,3 0,1 5 3 12 7 ZW 1018,6 42 0,0
15.11.2017 23:00:00 1,5 0,0 9 5 13 7 ZW 1018,1 48 0,0
15.11.2017 22:00:00 1,8 0,0 7 4 13 7 ZW 1017,7 50 0,0
15.11.2017 21:00:00 2,0 -0,1 6 4 13 7 WZW 1017,3 50 0,0
15.11.2017 20:00:00 2,8 -0,1 6 3 20 11 WZW 1016,6 50 0,0
15.11.2017 19:00:00 3,7 0,3 9 5 22 12 W 1016,1 50 0,0
15.11.2017 18:00:00 3,9 0,4 9 5 22 12 W 1015,3 50 0,0
15.11.2017 17:00:00 4,4 0,7 9 5 24 13 W 1014,7 50 0,0
15.11.2017 16:00:00 5,1 1,8 9 5 22 12 W 1013,8 50 0,0
15.11.2017 15:00:00 6,4 2,5 10 5 31 17 W 1012,8 50 0,0
15.11.2017 14:00:00 7,5 4,1 11 6 30 16 W 1012,2 40 0,0
15.11.2017 13:00:00 7,8 4,9 15 8 30 16 W 1011,6 33 0,0
15.11.2017 12:00:00 5,8 4,1 11 6 23 13 ZW 1011,4 27 0,0
15.11.2017 11:00:00 5,3 3,6 13 7 25 14 ZW 1011,7 23 0,0
15.11.2017 10:00:00 4,5 3,2 11 6 20 11 ZW 1011,9 22 0,0
15.11.2017 09:00:00 2,8 2,2 10 6 22 12 ZW 1012,0 23 0,0
15.11.2017 08:00:00 2,0 1,4 13 7 24 13 ZW 1012,0 25 0,0
15.11.2017 07:00:00 1,1 0,5 5 3 17 9 WNW 1012,1 21 0,0
15.11.2017 06:00:00 0,7 0,3 8 4 15 8 ZZW 1012,2 26 0,0
15.11.2017 05:00:00 0,8 0,4 9 5 16 9 ZW 1012,4 25 0,0
15.11.2017 04:00:00 0,4 0,0 6 4 14 8 WZW 1012,3 45 0,0
15.11.2017 03:00:00 0,7 0,3 7 4 15 8 ZW 1012,5 43 0,0
15.11.2017 02:00:00 1,1 0,1 8 4 32 17 W 1012,3 50 0,0
15.11.2017 01:00:00 2,4 0,9 11 6 29 15 W 1011,8 50 0,0
15.11.2017 00:00:00 2,5 1,8 9 5 19 11 W 1011,3 21 0,0
14.11.2017 23:00:00 2,2 1,8 8 5 16 9 WZW 1010,8 9 0,0
14.11.2017 22:00:00 1,8 1,5 6 4 18 10 ZW 1010,5 7 0,0
14.11.2017 21:00:00 1,6 1,3 7 4 14 8 ZW 1010,4 4,4 0,0
14.11.2017 20:00:00 1,4 1,0 8 5 18 10 ZW 1010,1 12 0,0
14.11.2017 19:00:00 1,3 0,7 9 5 13 7 ZW 1009,6 19 0,0
14.11.2017 18:00:00 1,1 0,7 5 3 10 6 ZZW 1009,4 9 0,0
14.11.2017 17:00:00 1,2 0,6 6 4 11 6 Z 1009,2 34 0,0
14.11.2017 16:00:00 1,0 0,6 5 3 11 6 Z 1009,3 19 0,0
14.11.2017 15:00:00 1,1 0,5 4 2 12 6 ZZW 1009,4 11 0,2
14.11.2017 14:00:00 1,1 0,4 6 4 19 10 ZZW 1009,6 8 0,3
14.11.2017 13:00:00 1,2 0,0 9 5 16 8 ZW 1009,9 14 0,0
14.11.2017 12:00:00 0,6 -1,2 7 4 12 6 ZZW 1010,1 13 0,0
14.11.2017 11:00:00 0,0 -2,2 3 2 10 5 Z 1010,4 50 0,0
14.11.2017 10:00:00 -0,7 -2,4 3 2 12 7 ZZO 1010,9 50 0,0
14.11.2017 09:00:00 -1,2 -2,0 6 4 16 9 ZZW 1011,6 50 0,0
14.11.2017 08:00:00 -1,9 -2,6 6 3 13 7 ZW 1011,7 48 0,0
14.11.2017 07:00:00 -2,4 -3,0 6 3 10 6 ZW 1011,9 47 0,0
14.11.2017 06:00:00 -2,8 -3,5 7 4 14 7 ZW 1012,2 50 0,0
14.11.2017 05:00:00 -3,1 -4,1 8 4 14 7 WZW 1012,4 50 0,0
14.11.2017 04:00:00 -3,2 -4,3 6 4 12 7 ZW 1012,2 50 0,0
14.11.2017 03:00:00 -3,2 -4,5 7 4 12 6 WZW 1012,4 50 0,0
14.11.2017 02:00:00 -2,8 -3,9 7 4 11 6 ZW 1012,5 50 0,0
14.11.2017 01:00:00 -3,0 -3,8 7 4 11 6 ZW 1012,7 50 0,0

tt = temperatuur
td = dauwpunt
ff = windsnelheid
fx = windstoten
dd = windrichting
ppp = luchtdruk
vv = zicht
rr = neerslag

Weerstations in de omgeving